{"data":{"norad_id":68730,"epoch":"2026-09-18T03:09:40.495680Z","epoch_age_seconds":245954,"freshness":"STALE","line1":"1 68730U 26082C   26261.13171870  .00011254  00000+0  35039-3 0  9992","line2":"2 68730  97.2845 123.3371 0002172 100.4977 259.6511 15.33443808 23947","mean_motion":15.33443808,"eccentricity":0.0002172,"inclination_deg":97.2845,"raan_deg":123.3371,"arg_perigee_deg":100.4977,"mean_anomaly_deg":259.6511,"bstar":0.00035039,"rev_number":2394,"period_min":93.906277653442,"perigee_km":464.06027292958,"apogee_km":467.03316913799,"semimajor_km":6843.6837210338,"source":"CELESTRAK","updated_at":"2026-09-20T09:00:43.989941Z"}}